Location: Brantley
(31.5822°N, 86.2569°W)
Time: 03:56:23
(UTC+00:00)

Vanguard 2 - Pass Details

Date: 16 February 2026
Orbit: 553 x 2896 km, 32.9° (Epoch: 7 March)

Event Time Altitude Azimuth Distance (km) Brightness Sun altitude
Rises 16:26:13 0° 280° (W) 2,727 10.1 40.9°
Reaches altitude 10° 16:28:18 10° 275° (W) 1,883 9.4 41.1°
Maximum altitude 16:32:19 53° 198° (SSW) 822 8.9 41.6°
Drops below altitude 10° 16:37:48 10° 122° (ESE) 2,544 11.1 42.1°
Sets 16:41:01 0° 118° (ESE) 3,815 11.7 42.4°
